STARLINK-11615, 63274

Orbit data source: Space-Track

STARLINK-11615, 63274 is a payload satellite owned by SpaceX/Seattle (US) in LEO that was launched on Sat, 15 Mar 2025 UTC via an FALCON 9 launch vehicle from the Air Force Eastern Test Range (AFETR). Payload-class satellites include a variety of spacecraft equipped with specific instruments for various scientific and technological missions. These include communications satellites like Starlink; space stations such as the ISS; scientific satellites like the Hubble; Earth observation satellites from companies like Planet Labs, Umbra, and HawkEye 360; GPS; miniature CubeSats for education and research; and military/defense satellites.

Loading next visibility...
Identifier
63274, 2025-053K
Orbit
LEO
Country
Flag of USUS
Related business
Manufacturer
SpaceX/Seattle
Mission
Operational Commercial Communications
Bus & Motor
STARLINK V2MD, Unknown motor
Mass
960 kg wet, ~910 kg dry
Launch date (UTC)
2025-03-15 (1 year ago)
Launch vehicle
FALCON 9
Launch site
Air Force Eastern Test Range (AFETR)
Object type
Payload
Rocket body
Debris
Shape & HBR
Box + 2 Pan, 18.1 m
Radar Cross Section
36.964 m², Large (>1 m²)

Expand to show TLE details & history
Last TLE update: 12 hours ago

TLE from 12 hours ago
0 STARLINK-11615
1 63274U 25053K   26171.41099463  .00130420  00000-0  10047-2 0  9994
2 63274  42.9991 213.1711 0001375 289.6208  70.4511 15.70824770 73824
Epoch: 2026-06-20T09:51Z
TLE epoch observation values (Epoch: 2026-06-20T09:51:49.936Z)
Latitude
-0.00001°
Longitude
156.58702°
Altitude
356 km
Speed
7.698 km/s
True Right ascension
14h 12m 41s
True Declination
0° 00' 00"
Sunlit
Object was in full shadow at epoch
Visualization orbit readout
Latitude
Unknown
Longitude
Unknown
Altitude
Unknown
Speed
Unknown
Apparent Right ascension
Unknown
Apparent Declination
Unknown
Sunlit
N/A
Visualization observer readout
Local Sidereal Time
08:32:58
Azimuth
Unknown
Elevation
Unknown
Doppler factor
Unknown
Orbital elements
Apogee altitude
359.447 km
Perigee altitude
357.594 km
Semi-major axis
6,736.657 km
Eccentricity
0.00014
Inclination
42.9991°
RAAN
213.1711°
Arg. of periapsis
289.6208°
True anomaly
70.46595°
Mean anomaly
70.4511°
Eccentric anomaly
70.45852°
Mean motion
3.92533 °/min
Orbital period
91.71 mins
BSTAR
0.0010047
Loading maneuver chart data...
Computing Atmospheric mass density...
Loading historical data...
Loading historical data...
Loading historical data...
Loading historical data...
Loading historical data...
Loading historical data...
Loading historical data...

Documentation

Showing up to 5 results
|